Back to catalog

SL-8 DEB

AliveLEO
NORAD 21211·DEBRIS·🇷🇺 Russia

Launched Feb 12, 1991 from Plesetsk Cosmodrome

Loading…

Next Passes (next 24 hours)

TLE

FreshSource: Space-Track

Epoch: Sep 13, 2026, 16:31 UTC

1 21211U 91009BE  26256.68839914  .00000223  00000-0  21439-2 0  9993
2 21211  74.0974 157.2453 0199788 104.4269 286.7696 12.19853602578028

Track SL-8 DEB in real time with AllMySat

Download on the App Store